Location: Bli��� Lhota
(48.7570°N, 14.0120°E)
Time: 02:54:28
(UTC+00:00)

MetOp-B - Pass Details

Date: 18 September 2020
Orbit: 819 x 821 km, 98.7° (Epoch: 24 October)

Event Time Altitude Azimuth Distance (km) Brightness Sun altitude
Exits shadow 19:41:03 64° 124° (SE) 907 4.0 -24.3°
Maximum altitude 19:41:44 74° 72° (ENE) 859 4.0 -24.4°
Drops below altitude 10° 19:47:06 10° 349° (NNW) 2,428 7.2 -25.1°
Sets 19:49:27 0° 347° (NNW) 3,364 8.0 -25.4°
